This demonstration page uses our WeatherBlox Daily Observations layout. Learn more.

39.29038, -76.61219

Hourly Observations for August 3, 2020

Temp ( °F °C ) Dew Point ( °F °C ) Humidity (%) Winds ( mph kmh ) Pressure ( in mb ) Visibility ( mi km ) Precip ( " mm )
12:54 am 00:54 Partly Cloudy 79 26.1 71 21.7 77 77 W 5 7 29.94 1014 10 16.0934 0 0
1:54 am 01:54 Partly Cloudy 79 26.1 67 19.4 67 67 WSW 5 7 29.96 1015 10 16.0934 0 0
2:54 am 02:54 Mostly Cloudy 79 26.1 63 17.2 58 58 W 8 13 29.97 1015 10 16.0934 0 0
3:54 am 03:54 Mostly Cloudy 79 26.1 62 16.7 56 56 WSW 3 6 29.98 1015 10 16.0934 0 0
4:54 am 04:54 Mostly Cloudy 78 25.6 62 16.7 58 58 SW 3 6 29.99 1016 10 16.0934 0 0
5:54 am 05:54 Mostly Cloudy 75 23.9 62 16.7 64 64 W 7 11 30 1016 10 16.0934 0 0
6:54 am 06:54 Mostly Cloudy 76 24.4 62 16.7 62 62 W 5 7 30.02 1017 10 16.0934 0 0
7:54 am 07:54 Mostly Cloudy 77 25 63 17.2 62 62 WNW 6 9 30.03 1017 10 16.0934 0 0
8:54 am 08:54 Mostly Cloudy 80 26.7 62 16.7 54 54 VRB 5 7 30.05 1018 10 16.0934 0 0
9:54 am 09:54 Mostly Cloudy 82 27.8 63 17.2 53 53 Calm 30.05 1018 10 16.0934 0 0
10:54 am 10:54 Mostly Cloudy 85 29.4 64 17.8 50 50 Calm 30.05 1018 10 16.0934 0 0
11:54 am 11:54 Partly Cloudy 84 28.9 62 16.7 48 48 Calm 30.05 1018 10 16.0934 0 0
12:54 pm 12:54 Mostly Cloudy 89 31.7 64 17.8 43 43 VRB 5 7 30.04 1017 10 16.0934 0 0
1:54 pm 13:54 Mostly Cloudy 88 31.1 66 18.9 48 48 SE 9 15 30.03 1017 10 16.0934 0 0
2:54 pm 14:54 Mostly Cloudy 86 30 67 19.4 53 53 SSE 5 7 30.02 1017 10 16.0934 0 0
3:54 pm 15:54 Cloudy 86 30 68 20 55 55 SE 7 11 30.01 1016 10 16.0934 0 0
4:32 pm 16:32 Cloudy with Thunderstorms 84 28.9 66 18.9 55 55 SSE 10 17 30.03 1017 10 16.0934 0 0
4:54 pm 16:54 Cloudy with Light Thunderstorms 82 27.8 68 20 63 63 S 7 11 30.05 1018 9 14.48406 0.001 0.001
5:00 pm 17:00 Cloudy with Thunderstorms 78 25.6 70 21.1 76 76 SSW 12 19 30.05 1018 1.5 2.41401 0.02 0.508
5:07 pm 17:07 Cloudy with Thunderstorms 75 23.9 69 20.6 82 82 S 8 13 30.06 1018 4 6.43736 0.09 2.286
5:37 pm 17:37 Cloudy with Rain 73 22.8 69 20.6 87 87 W 5 7 30.06 1018 4 6.43736 0.12 3.048
5:54 pm 17:54 Cloudy with Rain 72 22.2 69 20.6 91 91 W 6 9 30.05 1018 4 6.43736 0.18 4.572
6:54 pm 18:54 Cloudy 73 22.8 69 20.6 87 87 VRB 6 9 30.04 1017 10 16.0934 0.02 0.508
7:54 pm 19:54 Cloudy 73 22.8 69 20.6 87 87 S 3 6 30.02 1017 10 16.0934 0.001 0.001
8:54 pm 20:54 Cloudy 73 22.8 69 20.6 87 87 Calm 30 1016 10 16.0934 0 0
9:54 pm 21:54 Cloudy 73 22.8 70 21.1 90 90 Calm 30.02 1017 10 16.0934 0.001 0.001
10:54 pm 22:54 Cloudy with Light Rain 73 22.8 70 21.1 90 90 SSE 5 7 30.04 1017 10 16.0934 0.001 0.001
11:54 pm 23:54 Cloudy with Light Rain 73 22.8 70 21.1 90 90 Calm 30.02 1017 8 12.87472 0.03 0.762

Powered by AerisWeather